QPF
0.00 0.00 0.00 0.00 0.00 0.00 0.00 0.00 0.00 0.00 0.00 0.00 0.00 0.00 0.00 0.00 0.00 0.00 0.00 0.00 0.00 0.00 0.00 0.00 0.00 0.00 0.00 0.00 0.00 0.00 0.00 0.00 0.00 0.00 0.00 0.00 0.00 0.00 0.00 0.00 0.00 0.00
0.00 0.00 0.00 0.00 0.00 0.00 0.00 0.00 0.00 0.00 0.00 0.00 0.00 0.00 0.00 0.00 0.00 0.00 0.00 0.00 0.00 0.00 0.00 0.00 0.00 0.00 0.00 0.00 0.00 0.00 0.00 0.00 0.00 0.00 0.00 0.00 0.00 0.00 0.00 0.00 0.00 0.00
0.00 0.00 0.01 0.00 0.00 0.00 0.00 0.00 0.00 0.00 0.00 0.00 0.00 0.00 0.00 0.00 0.00 0.00 0.00 0.00 0.00 0.00 0.00 0.00 0.00 0.00 0.00 0.00 0.00 0.00 0.00 0.00 0.00 0.00 0.00 0.00 0.00 0.00 0.00 0.00 0.00 0.00
0.00 0.00 0.01 0.00 0.00 0.00 0.00 0.04 0.03 0.00 0.00 0.00 0.00 0.00 0.00 0.00 0.00 0.00 0.00 0.00 0.00 0.00 0.00 0.00 0.00 0.00 0.00 0.00 0.00 0.00 0.00 0.00 0.00 0.00 0.00 0.00 0.00 0.00 0.00 0.00 0.00 0.00
0.01 0.00 0.01 0.01 0.02 0.03 0.00 0.03 0.02 0.00 0.00 0.00 0.00 0.00 0.00 0.00 0.00 0.00 0.00 0.00 0.00 0.00 0.00 0.00 0.00 0.00 0.00 0.00 0.00 0.00 0.00 0.00 0.00 0.00 0.00 0.00 0.00 0.00 0.00 0.00 0.00 0.00
0.00 0.00 0.00 0.00 0.00 0.00 0.00 0.00 0.00 0.00 0.00 0.00 0.00 0.00 0.00 0.00 0.00 0.00 0.00 0.00 0.00 0.00 0.00 0.00 0.00 0.00 0.00 0.00 0.00 0.00 0.00 0.00 0.00 0.00 0.00 0.00 0.00 0.00 0.00 0.00 0.00 0.00
0.00 0.00 0.00 0.00 0.00 0.01 0.00 0.00 0.00 0.00 0.00 0.00 0.00 0.00 0.00 0.00 0.00 0.00 0.00 0.00 0.00 0.00 0.00 0.00 0.00 0.00 0.00 0.00 0.00 0.00 0.00 0.00 0.00 0.00 0.00 0.00 0.00 0.00 0.00 0.00 0.00 0.00
0.00 0.00 0.00 0.00 0.00 0.00 0.01 0.01 0.00 0.00 0.00 0.00 0.00 0.00 0.00 0.00 0.00 0.00 0.00 0.00 0.00 0.00 0.00 0.00 0.00 0.00 0.00 0.00 0.00 0.00 0.00 0.00 0.00 0.00 0.00 0.00 0.00 0.00 0.00 0.00 0.00 0.00
0.00 0.00 0.00 0.00 0.00 0.00 0.00 0.00 0.00 0.00 0.00 0.00 0.00 0.00 0.00 0.00 0.00 0.00 0.00 0.00 0.00 0.00 0.00 0.00 0.00 0.00 0.00 0.00 0.00 0.00 0.00 0.00 0.00 0.00 0.00 0.00 0.00 0.00 0.00 0.00 0.00 0.00
0.00 0.00 0.00 0.00 0.00 0.01 0.01 0.00 0.00 0.01 0.01 0.01 0.00 0.00 0.00 0.00 0.00 0.00 0.00 0.00 0.00 0.00 0.00 0.00 0.00 0.00 0.00 0.02 0.00 0.00 0.00 0.00 0.00 0.00 0.00 0.00 0.00 0.00 0.00 0.00 0.00 0.00
0.00 0.00 0.00 0.00 0.00 0.00 0.01 0.02 0.03 0.01 0.01 0.01 0.00 0.01 0.00 0.00 0.08 0.03 0.02 0.00 0.01 0.00 0.00 0.00 0.01 0.00 0.00 0.02 0.11 0.04 0.00 0.00 0.00 0.00 0.00 0.00 0.00 0.00 0.00 0.00 0.00 0.00
0.00 0.00 0.00 0.00 0.00 0.00 0.00 0.00 0.01 0.01 0.02 0.09 0.16 0.32 0.14 0.07 0.02 0.03 0.05 0.07 0.11 0.04 0.02 0.01 0.02 0.03 0.12 0.17 0.09 0.03 0.01 0.01 0.01 0.00 0.00 0.00 0.00 0.00 0.00 0.00 0.00 0.00
0.00 0.01 0.02 0.00 0.00 0.00 0.00 0.00 0.01 0.01 0.00 0.00 0.02 0.02 0.02 0.01 0.02 0.06 0.19 0.13 0.17 0.23 0.24 0.21 0.23 0.17 0.32 0.20 0.24 0.10 0.28 0.00 0.00 0.00 0.00 0.01 0.00 0.00 0.00 0.00 0.00 0.00
0.00 0.00 0.00 0.00 0.00 0.00 0.00 0.00 0.00 0.00 0.00 0.07 0.14 0.13 0.19 0.10 0.06 0.08 0.22 0.04 0.09 0.14 0.11 0.15 0.17 0.19 0.20 0.06 0.00 0.04 0.08 0.09 0.01 0.00 0.01 0.00 0.00 0.00 0.02 0.01 0.00 0.00
0.00 0.00 0.00 0.00 0.00 0.00 0.00 0.00 0.00 0.00 0.00 0.05 0.06 0.05 0.17 0.12 0.33 0.22 0.13 0.03 0.01 0.00 0.00 0.07 0.02 0.02 0.06 0.20 0.01 0.01 0.00 0.00 0.00 0.00 0.00 0.00 0.00 0.00 0.01 0.02 0.00 0.00
0.00 0.00 0.00 0.00 0.03 0.00 0.00 0.00 0.00 0.00 0.03 0.06 0.00 0.00 0.02 0.00 0.00 0.00 0.00 0.00 0.00 0.00 0.00 0.00 0.00 0.00 0.00 0.00 0.00 0.00 0.00 0.00 0.00 0.00 0.01 0.02 0.02 0.02 0.01 0.03 0.00 0.00
0.00 0.00 0.00 0.00 0.00 0.00 0.00 0.00 0.00 0.00 0.00 0.00 0.00 0.01 0.00 0.00 0.00 0.00 0.00 0.00 0.00 0.00 0.00 0.00 0.00 0.00 0.00 0.00 0.00 0.00 0.00 0.00 0.00 0.00 0.00 0.00 0.00 0.00 0.00 0.06 0.00 0.00
0.00 0.00 0.00 0.00 0.00 0.00 0.00 0.00 0.00 0.00 0.00 0.00 0.00 0.00 0.00 0.00 0.00 0.00 0.00 0.00 0.00 0.00 0.00 0.00 0.00 0.00 0.00 0.00 0.00 0.00 0.00 0.00 0.00 0.00 0.00 0.00 0.00 0.00 0.00 0.00 0.00 0.01
0.00 0.00 0.00 0.00 0.00 0.00 0.00 0.00 0.00 0.00 0.00 0.00 0.01 0.00 0.00 0.00 0.00 0.01 0.00 0.00 0.00 0.00 0.00 0.00 0.00 0.00 0.00 0.00 0.00 0.00 0.00 0.00 0.00 0.00 0.00 0.00 0.00 0.00 0.01 0.01 0.01 0.00
0.00 0.00 0.00 0.00 0.00 0.00 0.00 0.00 0.00 0.00 0.00 0.00 0.00 0.00 0.00 0.00 0.00 0.00 0.00 0.00 0.00 0.00 0.00 0.00 0.00 0.00 0.00 0.00 0.00 0.00 0.00 0.00 0.00 0.00 0.00 0.00 0.00 0.00 0.00 0.00 0.00 0.00
0.00 0.00 0.00 0.00 0.00 0.00 0.00 0.00 0.00 0.00 0.00 0.00 0.00 0.00 0.00 0.00 0.00 0.00 0.00 0.00 0.00 0.00 0.00 0.00 0.00 0.00 0.00 0.00 0.00 0.00 0.00 0.00 0.00 0.00 0.00 0.00 0.00 0.00 0.00 0.00 0.00 0.00
0.00 0.00 0.00 0.01 0.00 0.00 0.00 0.00 0.00 0.00 0.00 0.00 0.00 0.00 0.00 0.00 0.00 0.00 0.00 0.00 0.00 0.00 0.00 0.00 0.00 0.00 0.00 0.00 0.00 0.00 0.00 0.00 0.00 0.00 0.00 0.00 0.00 0.00 0.00 0.00 0.00 0.00
0.01 0.00 0.01 0.00 0.00 0.00 0.00 0.00 0.00 0.00 0.00 0.00 0.00 0.00 0.00 0.00 0.00 0.00 0.00 0.00 0.00 0.00 0.00 0.00 0.00 0.00 0.00 0.00 0.00 0.00 0.00 0.00 0.00 0.00 0.00 0.00 0.00 0.00 0.00 0.00 0.00 0.00
0.00 0.00 0.00 0.01 0.00 0.00 0.00 0.00 0.00 0.00 0.00 0.00 0.00 0.00 0.00 0.00 0.00 0.00 0.00 0.00 0.00 0.00 0.00 0.00 0.00 0.00 0.00 0.00 0.00 0.00 0.00 0.00 0.00 0.00 0.00 0.00 0.00 0.00 0.00 0.00 0.00 0.00
0.00 0.00 0.00 0.00 0.00 0.00 0.00 0.00 0.00 0.00 0.00 0.00 0.00 0.00 0.00 0.00 0.00 0.00 0.00 0.00 0.00 0.00 0.00 0.00 0.00 0.00 0.00 0.00 0.00 0.00 0.00 0.00 0.00 0.00 0.00 0.00 0.00 0.00 0.00 0.00 0.00 0.00
0.00 0.00 0.00 0.00 0.00 0.00 0.00 0.00 0.00 0.00 0.00 0.00 0.00 0.00 0.00 0.00 0.00 0.00 0.00 0.00 0.00 0.00 0.00 0.00 0.00 0.00 0.00 0.00 0.00 0.00 0.00 0.00 0.00 0.00 0.00 0.00 0.00 0.00 0.00 0.00 0.00 0.00
MSLP
1017.58 1017.82 1018.02 1018.26 1018.50 1018.86 1019.14 1019.22 1019.46 1019.54 1019.78 1019.86 1019.86 1020.10 1020.22 1020.42 1020.50 1020.58 1020.74 1020.82 1020.66 1020.66 1020.78 1020.86 1020.90 1020.90 1020.94 1020.90 1020.82 1020.82 1020.82 1020.94 1021.06 1021.10 1020.94 1020.98 1021.10 1020.94 1021.06 1021.18 1021.30 1021.42
1017.70 1017.90 1018.10 1018.34 1018.58 1018.86 1019.26 1019.38 1019.42 1019.54 1019.78 1019.90 1020.02 1020.14 1020.38 1020.42 1020.58 1020.70 1020.86 1021.02 1021.06 1021.06 1021.30 1021.30 1021.26 1021.22 1021.14 1021.06 1021.02 1020.86 1020.98 1020.94 1020.94 1021.10 1020.82 1020.82 1021.06 1021.02 1021.14 1021.22 1021.34 1021.50
1018.06 1018.10 1018.26 1018.38 1018.54 1018.82 1019.22 1019.50 1019.50 1019.74 1019.82 1020.02 1020.14 1020.18 1020.30 1020.46 1020.62 1020.78 1020.98 1021.10 1021.22 1021.30 1021.46 1021.70 1021.66 1021.66 1021.58 1021.46 1021.38 1021.26 1021.22 1021.22 1021.22 1021.42 1021.14 1021.18 1021.26 1021.14 1021.42 1021.42 1021.42 1021.42
1018.06 1017.98 1018.10 1018.38 1018.62 1018.90 1019.26 1019.38 1019.38 1019.70 1019.94 1019.98 1020.02 1020.18 1020.30 1020.42 1020.58 1020.74 1020.94 1021.06 1021.18 1021.34 1021.50 1021.66 1021.74 1021.82 1021.82 1021.78 1021.70 1021.58 1021.62 1021.62 1021.78 1021.66 1021.54 1021.74 1021.66 1021.54 1021.70 1021.70 1021.78 1021.90
1017.66 1017.98 1018.10 1018.22 1018.34 1018.66 1019.22 1019.34 1019.14 1019.78 1019.78 1019.86 1020.02 1020.18 1020.30 1020.42 1020.54 1020.70 1020.86 1020.98 1021.06 1021.22 1021.38 1021.50 1021.66 1021.70 1021.78 1021.78 1021.78 1021.74 1021.82 1021.82 1021.90 1021.70 1021.62 1021.74 1021.94 1021.70 1021.86 1021.70 1021.70 1021.82
1017.58 1017.82 1018.06 1018.22 1018.22 1018.54 1018.94 1019.30 1018.94 1019.22 1019.50 1019.74 1019.78 1020.02 1020.22 1020.42 1020.54 1020.62 1020.74 1020.86 1021.06 1021.14 1021.26 1021.42 1021.54 1021.70 1021.82 1021.82 1021.82 1021.82 1021.86 1021.90 1022.06 1021.90 1021.78 1021.78 1021.94 1022.06 1022.02 1021.90 1021.82 1021.90
1017.34 1017.50 1017.74 1018.14 1018.42 1018.58 1018.74 1019.10 1019.26 1019.22 1019.34 1019.62 1019.94 1020.06 1020.18 1020.30 1020.46 1020.66 1020.86 1020.98 1021.10 1021.26 1021.42 1021.46 1021.54 1021.66 1021.90 1021.94 1021.86 1021.82 1021.98 1021.98 1022.06 1022.06 1021.98 1022.10 1022.02 1022.06 1022.18 1022.02 1022.02 1022.10
1017.46 1017.54 1017.86 1018.22 1018.42 1018.66 1018.82 1019.14 1019.22 1019.22 1019.22 1019.58 1020.02 1020.38 1020.62 1020.86 1020.98 1021.02 1021.02 1021.18 1021.42 1021.58 1021.66 1021.70 1021.78 1021.82 1021.90 1021.90 1021.78 1021.78 1021.86 1022.10 1022.02 1021.98 1022.02 1022.14 1022.18 1022.10 1022.10 1022.06 1022.06 1022.14
1017.38 1017.70 1017.90 1018.22 1018.38 1018.62 1018.82 1019.02 1019.14 1019.10 1019.10 1019.30 1019.90 1020.22 1020.50 1020.54 1020.54 1020.50 1020.62 1020.78 1020.98 1021.18 1021.46 1021.66 1021.74 1021.86 1021.90 1021.90 1021.82 1021.74 1021.70 1021.82 1022.02 1021.98 1021.90 1021.94 1022.06 1022.10 1022.22 1022.38 1022.22 1022.22
1017.42 1017.66 1017.94 1018.14 1018.34 1018.54 1018.70 1018.90 1019.22 1019.22 1019.18 1019.26 1019.66 1019.98 1020.18 1020.38 1020.42 1020.42 1020.50 1020.66 1020.82 1021.02 1021.38 1021.70 1021.86 1022.02 1022.02 1021.94 1021.90 1021.82 1021.74 1021.66 1021.74 1021.86 1021.94 1021.90 1021.86 1021.94 1022.10 1022.22 1022.26 1022.34
1017.66 1017.86 1018.06 1018.14 1018.26 1018.46 1018.62 1018.82 1018.98 1019.02 1019.26 1019.42 1019.70 1019.94 1020.30 1020.42 1020.50 1020.50 1020.54 1020.58 1020.70 1021.02 1021.38 1021.50 1021.66 1021.86 1022.14 1022.46 1022.38 1022.14 1021.82 1021.66 1021.66 1021.70 1021.78 1021.82 1021.90 1021.90 1021.98 1022.02 1022.18 1022.18
1017.90 1017.98 1017.98 1018.02 1018.14 1018.30 1018.46 1018.66 1018.78 1018.98 1019.22 1019.42 1019.62 1019.98 1020.34 1020.42 1020.46 1020.66 1020.82 1020.98 1021.06 1021.10 1021.26 1021.14 1021.06 1021.30 1021.74 1022.34 1022.54 1022.30 1021.98 1021.94 1021.90 1021.78 1021.74 1021.78 1021.86 1021.98 1022.02 1022.02 1021.94 1022.02
1017.98 1017.90 1017.94 1017.98 1018.06 1018.14 1018.38 1018.58 1018.82 1019.10 1019.22 1019.42 1019.30 1019.30 1019.70 1019.90 1020.14 1020.30 1020.42 1020.34 1020.50 1020.86 1021.10 1021.30 1021.38 1021.34 1021.50 1021.58 1021.90 1022.22 1022.02 1021.70 1021.66 1021.66 1021.66 1021.66 1021.74 1021.86 1021.94 1022.10 1022.10 1022.02
1017.82 1017.86 1017.86 1017.86 1018.02 1018.18 1018.34 1018.66 1018.90 1018.98 1018.90 1018.98 1019.14 1019.38 1019.50 1019.62 1019.82 1020.02 1020.10 1020.38 1020.66 1020.86 1020.94 1020.98 1021.14 1021.26 1021.42 1021.58 1021.78 1021.98 1021.94 1021.62 1021.46 1021.38 1021.46 1021.54 1021.62 1021.78 1021.98 1021.94 1021.90 1021.98
1017.90 1017.98 1017.98 1018.06 1018.10 1018.14 1018.30 1018.54 1018.74 1018.82 1018.82 1018.86 1019.06 1019.18 1019.10 1019.26 1019.70 1019.74 1019.94 1020.18 1020.46 1020.66 1020.78 1020.82 1020.90 1021.02 1021.14 1021.30 1021.30 1021.38 1021.54 1021.42 1021.34 1021.42 1021.42 1021.46 1021.50 1021.62 1021.82 1021.90 1021.86 1021.82
1017.82 1017.86 1017.86 1018.10 1018.18 1018.10 1018.26 1018.54 1018.78 1018.86 1018.98 1019.14 1019.22 1019.22 1019.18 1019.30 1019.66 1019.90 1020.10 1020.26 1020.42 1020.54 1020.66 1020.70 1020.70 1020.74 1020.74 1020.90 1021.06 1021.10 1021.14 1021.14 1021.22 1021.30 1021.38 1021.42 1021.42 1021.50 1021.58 1021.66 1021.62 1021.62
1017.94 1017.90 1017.94 1017.98 1018.18 1018.26 1018.42 1018.66 1018.86 1018.98 1019.06 1019.22 1019.26 1019.22 1019.14 1019.22 1019.62 1019.98 1020.10 1020.30 1020.42 1020.54 1020.66 1020.74 1020.74 1020.70 1020.82 1021.02 1020.98 1020.94 1020.90 1020.90 1021.02 1021.10 1021.26 1021.30 1021.34 1021.34 1021.30 1021.30 1021.38 1021.46
1017.90 1018.06 1018.06 1018.14 1018.34 1018.30 1018.42 1018.62 1018.86 1018.98 1019.06 1019.14 1019.18 1019.18 1019.26 1019.46 1019.66 1019.78 1019.94 1020.10 1020.30 1020.42 1020.46 1020.46 1020.50 1020.58 1020.66 1020.66 1020.74 1020.78 1020.86 1020.82 1020.90 1020.90 1020.98 1021.06 1021.10 1021.10 1021.06 1021.14 1021.22 1021.42
1017.74 1017.74 1017.74 1017.82 1018.06 1018.22 1018.34 1018.50 1018.58 1018.66 1018.66 1018.70 1018.78 1019.18 1019.30 1019.26 1019.50 1019.86 1019.90 1019.98 1020.02 1020.10 1020.22 1020.22 1020.30 1020.42 1020.46 1020.46 1020.46 1020.54 1020.62 1020.70 1020.70 1020.82 1020.86 1020.86 1020.90 1020.90 1020.94 1020.98 1021.06 1021.18
1017.58 1017.74 1017.74 1017.82 1018.02 1018.18 1018.30 1018.14 1018.06 1018.06 1018.42 1018.78 1018.98 1019.22 1019.22 1019.34 1019.46 1019.42 1019.62 1019.86 1020.14 1020.26 1020.26 1020.34 1020.30 1020.38 1020.38 1020.42 1020.42 1020.42 1020.54 1020.62 1020.66 1020.74 1020.82 1020.86 1020.90 1020.90 1020.90 1020.94 1020.98 1021.06
1017.74 1017.66 1017.54 1017.66 1017.86 1018.06 1018.10 1018.06 1018.14 1018.34 1018.42 1018.62 1018.70 1018.70 1018.82 1018.94 1019.18 1019.42 1019.66 1019.86 1019.98 1020.10 1020.06 1019.90 1020.10 1020.38 1020.54 1020.66 1020.62 1020.54 1020.54 1020.74 1020.82 1020.94 1020.98 1020.98 1021.02 1020.98 1020.94 1020.94 1020.94 1021.02
1018.10 1017.78 1017.74 1017.90 1017.98 1018.14 1018.10 1018.14 1018.30 1018.30 1018.34 1018.82 1019.06 1019.30 1019.54 1019.66 1019.94 1019.98 1019.90 1019.98 1020.22 1020.18 1019.90 1019.82 1020.34 1020.58 1020.54 1020.50 1020.50 1020.58 1020.74 1020.66 1020.82 1020.86 1020.94 1021.06 1021.14 1021.18 1021.14 1021.14 1021.10 1021.10
1017.86 1018.30 1017.86 1017.86 1018.10 1018.06 1018.10 1018.22 1018.38 1018.66 1018.82 1019.22 1018.82 1018.94 1018.90 1018.94 1019.10 1019.34 1019.78 1019.62 1019.62 1019.74 1019.66 1019.70 1019.98 1020.34 1020.46 1020.38 1020.42 1020.62 1020.74 1020.74 1020.78 1020.86 1021.02 1021.18 1021.46 1021.58 1021.54 1021.42 1021.38 1021.42
1018.18 1017.98 1017.98 1018.10 1017.98 1017.86 1017.86 1018.06 1018.38 1018.58 1018.62 1018.98 1018.50 1018.74 1018.86 1019.10 1019.42 1019.74 1020.30 1020.42 1020.10 1020.06 1020.34 1019.98 1020.14 1020.42 1020.38 1020.30 1020.30 1020.54 1020.66 1020.70 1020.82 1020.82 1021.14 1021.34 1021.62 1021.90 1021.94 1021.86 1021.82 1021.66
1018.30 1018.22 1018.10 1018.10 1018.10 1018.06 1018.30 1018.22 1018.34 1018.38 1018.66 1019.02 1018.78 1018.86 1019.06 1019.62 1019.82 1019.82 1020.50 1020.94 1020.86 1020.66 1020.62 1020.30 1020.42 1020.58 1020.58 1020.42 1020.34 1020.42 1020.66 1020.82 1020.90 1020.98 1021.10 1021.50 1021.62 1021.98 1022.38 1022.34 1022.30 1022.30
1018.10 1018.06 1018.18 1018.18 1018.10 1018.18 1018.42 1018.46 1018.78 1019.06 1018.90 1018.94 1019.46 1019.46 1019.38 1019.94 1020.22 1020.26 1019.90 1020.54 1020.98 1020.78 1020.66 1020.62 1020.30 1020.50 1020.70 1020.62 1020.54 1020.58 1020.70 1020.86 1021.02 1020.86 1021.10 1021.74 1022.14 1022.14 1022.34 1022.78 1022.82 1022.82
Thickness
5603 5602 5601 5599 5596 5594 5591 5590 5589 5588 5586 5586 5586 5584 5583 5581 5581 5580 5580 5579 5579 5578 5577 5576 5577 5577 5578 5578 5579 5579 5578 5577 5577 5577 5579 5579 5579 5579 5579 5577 5577 5577
5600 5598 5597 5595 5593 5591 5588 5587 5586 5585 5584 5582 5582 5581 5580 5579 5578 5577 5576 5575 5574 5574 5572 5571 5571 5572 5573 5574 5575 5576 5575 5575 5576 5576 5577 5577 5577 5576 5576 5575 5575 5574
5595 5595 5593 5591 5589 5588 5585 5583 5583 5582 5581 5579 5579 5578 5578 5577 5576 5574 5573 5572 5571 5570 5569 5568 5567 5568 5569 5570 5571 5572 5572 5572 5572 5573 5573 5573 5573 5573 5572 5572 5571 5571
5593 5592 5591 5589 5587 5585 5581 5581 5582 5579 5578 5577 5577 5576 5575 5575 5574 5572 5571 5570 5569 5568 5567 5566 5565 5565 5565 5566 5567 5567 5568 5568 5568 5568 5569 5568 5569 5570 5569 5568 5568 5567
5593 5591 5589 5588 5587 5584 5580 5580 5581 5578 5576 5575 5575 5574 5573 5572 5571 5571 5569 5568 5568 5566 5565 5564 5563 5563 5563 5563 5564 5564 5564 5564 5564 5565 5566 5565 5565 5565 5565 5565 5565 5564
5592 5591 5589 5586 5585 5584 5580 5579 5580 5578 5576 5574 5573 5572 5571 5570 5569 5569 5568 5567 5566 5564 5563 5562 5561 5560 5560 5560 5561 5561 5561 5561 5560 5561 5562 5562 5561 5561 5561 5562 5562 5562
5592 5591 5589 5586 5584 5582 5580 5578 5577 5577 5576 5573 5570 5569 5568 5567 5567 5566 5566 5565 5563 5562 5560 5559 5558 5558 5557 5557 5558 5559 5559 5558 5558 5558 5559 5558 5558 5558 5558 5559 5559 5559
5590 5588 5586 5583 5581 5579 5578 5576 5575 5575 5575 5572 5567 5565 5564 5564 5563 5564 5564 5563 5561 5559 5557 5556 5556 5555 5555 5556 5557 5557 5557 5557 5556 5557 5557 5555 5555 5556 5555 5556 5556 5556
5587 5585 5583 5580 5578 5577 5576 5574 5573 5573 5573 5571 5566 5563 5561 5562 5563 5563 5563 5561 5560 5558 5556 5555 5554 5553 5554 5554 5555 5556 5556 5556 5555 5555 5556 5555 5554 5554 5553 5553 5553 5553
5584 5582 5580 5578 5576 5575 5573 5571 5570 5569 5570 5568 5565 5562 5561 5560 5561 5561 5561 5560 5558 5557 5554 5552 5551 5551 5551 5551 5552 5553 5554 5554 5554 5553 5554 5553 5553 5553 5552 5551 5550 5550
5579 5577 5576 5575 5574 5573 5571 5569 5568 5568 5567 5565 5563 5560 5558 5556 5556 5557 5557 5556 5555 5554 5552 5552 5551 5550 5548 5546 5546 5549 5551 5552 5551 5551 5551 5551 5551 5551 5550 5549 5549 5548
5573 5573 5572 5572 5572 5571 5569 5568 5567 5566 5564 5562 5561 5559 5556 5555 5554 5553 5553 5554 5553 5551 5550 5550 5551 5550 5547 5543 5542 5544 5547 5547 5548 5548 5548 5549 5549 5548 5548 5548 5547 5547
5568 5569 5569 5569 5569 5569 5568 5566 5564 5562 5561 5560 5561 5559 5557 5556 5555 5553 5552 5553 5552 5550 5548 5548 5549 5549 5547 5544 5543 5541 5543 5545 5545 5545 5546 5546 5546 5546 5545 5545 5544 5544
5565 5565 5566 5566 5565 5565 5564 5562 5559 5559 5559 5559 5559 5558 5557 5556 5553 5551 5551 5551 5549 5547 5546 5546 5546 5545 5544 5543 5542 5541 5541 5543 5544 5544 5544 5544 5544 5544 5542 5542 5542 5542
5560 5561 5561 5561 5561 5560 5559 5557 5556 5556 5555 5555 5555 5554 5555 5554 5552 5551 5550 5547 5545 5544 5544 5544 5543 5543 5543 5541 5541 5541 5541 5541 5541 5541 5541 5540 5541 5541 5539 5539 5540 5539
5555 5556 5556 5556 5556 5556 5555 5553 5552 5551 5550 5550 5550 5551 5552 5552 5549 5547 5545 5543 5542 5541 5541 5541 5540 5541 5541 5539 5539 5539 5539 5539 5538 5537 5537 5536 5537 5537 5536 5536 5536 5536
5550 5550 5550 5551 5550 5550 5549 5548 5546 5545 5545 5545 5545 5546 5547 5546 5544 5542 5541 5540 5538 5538 5537 5537 5537 5537 5537 5536 5535 5535 5535 5535 5535 5534 5533 5533 5532 5533 5533 5533 5533 5532
5544 5544 5544 5544 5543 5543 5543 5542 5540 5540 5540 5540 5541 5542 5542 5541 5539 5537 5537 5536 5535 5534 5534 5534 5533 5533 5534 5533 5533 5532 5532 5531 5531 5531 5530 5529 5529 5529 5530 5529 5529 5529
5539 5538 5539 5538 5538 5538 5537 5537 5537 5537 5537 5536 5537 5537 5536 5536 5535 5533 5532 5532 5531 5530 5530 5529 5529 5529 5530 5530 5530 5529 5528 5528 5528 5527 5527 5527 5526 5526 5526 5526 5526 5525
5533 5533 5534 5534 5533 5532 5531 5533 5534 5533 5532 5532 5531 5531 5531 5531 5530 5529 5528 5527 5526 5525 5525 5526 5526 5525 5525 5525 5525 5525 5525 5524 5523 5523 5523 5522 5522 5522 5522 5522 5522 5521
5526 5526 5528 5528 5526 5526 5526 5527 5528 5527 5526 5525 5525 5525 5525 5525 5524 5524 5522 5522 5522 5521 5522 5523 5522 5521 5520 5520 5520 5520 5519 5519 5518 5518 5518 5517 5517 5517 5518 5517 5516 5516
5518 5519 5522 5522 5520 5519 5520 5519 5520 5520 5520 5519 5518 5518 5517 5517 5517 5517 5516 5516 5516 5516 5518 5518 5517 5515 5515 5515 5514 5513 5513 5513 5513 5512 5512 5511 5511 5511 5511 5511 5511 5510
5512 5512 5514 5515 5514 5514 5514 5513 5513 5513 5512 5511 5512 5512 5512 5512 5511 5508 5508 5509 5509 5508 5510 5510 5509 5508 5508 5508 5508 5507 5507 5506 5506 5506 5505 5504 5503 5502 5502 5503 5503 5502
5504 5504 5506 5507 5507 5508 5508 5506 5505 5505 5504 5504 5505 5506 5505 5503 5502 5500 5497 5497 5499 5499 5499 5500 5501 5500 5500 5502 5501 5501 5500 5499 5499 5499 5498 5496 5495 5493 5493 5493 5494 5494
5494 5495 5496 5497 5498 5498 5497 5497 5496 5495 5495 5495 5496 5497 5497 5494 5493 5492 5490 5488 5490 5491 5491 5493 5493 5493 5493 5494 5494 5495 5494 5493 5492 5492 5490 5488 5487 5485 5483 5482 5483 5483
5489 5489 5489 5490 5490 5490 5489 5488 5487 5486 5487 5487 5487 5487 5487 5486 5485 5487 5487 5484 5483 5484 5485 5486 5487 5487 5487 5487 5487 5488 5487 5486 5486 5485 5483 5480 5477 5476 5474 5472 5472 5472